Terminal Aerodrome Forecast
Issued by NWS

Home | Current Version | Previous Version | Text Only | Print | Product List | Glossary On
Versions: 1 2 3 4 5 6 7 8 9 10 11 12 13 14 15 16 17 18 19 20 21 22 23 24 25 26 27 28 29 30 31 32 33
000
FTUS46 KOTX 281140
TAFCOE
TAF
KCOE 281140Z 2812/2912 21015KT 6SM -SHRA BKN025 OVC040
     FM281330 22021G28KT P6SM VCSH BKN028 BKN050
     FM281800 24018G25KT P6SM BKN035 BKN060
     FM282100 24017G22KT P6SM SCT045
     FM290200 20007KT P6SM FEW250
     FM290700 15005KT P6SM SCT100 BKN200
      AMD LTD TO CLD AND VIS=

USA.gov is the U.S. government's official web portal to all federal, state and local government web resources and services.